Dewpoint
49 47 47 47 47 48 47 46 44 44 44 45 46 47 48 47 43 44 47 47 47 46 46 45 45 45 42 37 33 42 40 44 44 45 40 45 45 42 41 44 44 41 40 44 45 47 48
48 47 47 46 47 45 47 47 47 45 44 43 45 47 46 47 45 44 44 46 46 46 45 45 45 45 39 30 35 40 39 40 39 40 41 45 43 43 42 43 43 43 40 42 48 47 43
49 48 48 47 46 48 47 47 48 47 47 45 43 45 46 47 47 46 46 43 45 46 46 45 45 43 38 31 37 39 39 38 39 39 41 45 48 42 43 42 44 42 42 44 46 45 43
49 48 48 47 46 44 48 47 47 47 47 47 45 42 46 47 47 47 48 48 43 44 45 45 46 42 32 37 39 38 40 38 38 43 44 46 49 42 42 43 43 40 40 37 41 43 44
49 48 48 47 46 46 44 47 46 46 46 47 45 43 43 46 46 48 48 47 46 45 45 45 42 39 27 36 37 38 40 37 39 45 46 47 49 42 41 39 37 38 34 34 38 40 43
49 48 48 47 46 46 45 44 44 45 46 46 45 44 42 46 46 47 48 47 45 44 45 45 43 34 34 33 35 36 42 42 40 42 42 43 44 38 38 36 28 32 33 34 36 39 41
49 48 48 47 46 46 45 44 47 46 47 46 46 45 42 45 46 47 46 40 36 36 38 34 34 33 34 36 37 38 40 41 39 41 34 38 35 31 36 36 33 33 33 33 32 38 36
48 48 48 47 46 46 45 45 42 47 46 46 46 45 43 45 45 47 40 35 34 34 28 35 35 34 38 40 32 37 41 36 35 33 36 38 32 34 37 37 33 34 31 31 32 36 35
48 47 47 47 46 46 46 45 44 45 46 45 45 43 43 46 45 41 38 37 41 40 31 34 37 37 36 38 32 35 37 36 34 33 32 33 35 36 36 36 33 32 31 31 30 33 31
47 47 47 47 46 46 45 45 44 43 45 44 43 43 45 45 43 40 37 41 42 40 28 31 33 35 38 38 32 40 40 37 34 32 34 37 37 35 35 35 34 31 32 30 30 31 29
47 46 47 46 46 46 45 44 44 45 43 44 44 44 46 44 39 38 38 42 41 38 19 34 34 42 39 36 36 35 40 37 32 33 34 35 35 36 35 35 33 31 31 30 29 28 27
46 46 46 46 46 45 45 44 44 44 44 44 44 44 46 46 45 43 42 42 39 21 18 31 37 35 33 34 34 36 36 42 39 35 35 36 39 38 36 36 34 32 30 30 30 28 25
46 46 46 46 45 44 44 44 44 44 44 44 45 46 45 44 39 45 43 39 24 20 29 30 31 34 33 32 33 34 34 32 31 29 29 36 37 39 37 35 37 30 28 26 25 24 23
46 45 45 45 44 44 44 43 44 44 44 44 45 46 46 45 44 43 40 28 20 25 28 35 36 35 32 34 34 34 33 31 36 32 31 30 28 36 38 34 33 31 27 23 17 20 22
46 45 44 44 44 43 43 43 44 44 44 45 44 42 46 43 44 42 33 22 23 24 30 32 33 29 31 35 35 34 33 32 34 36 29 29 29 38 39 39 35 33 31 25 21 21 20
45 44 44 43 43 44 44 44 43 44 43 45 41 39 41 45 44 39 29 27 27 28 32 34 29 31 29 32 33 33 33 36 35 37 32 30 29 35 36 38 38 34 31 27 23 17 15
45 44 43 42 43 44 44 44 44 43 43 44 39 37 41 45 43 34 28 28 31 33 34 33 31 28 30 32 32 29 29 34 36 35 32 30 29 32 35 33 33 34 31 29 26 20 17
45 43 42 42 43 43 43 43 44 43 43 39 36 34 42 44 35 32 30 32 34 34 36 34 35 32 28 28 29 29 28 29 35 35 30 31 28 28 30 35 36 36 34 28 24 22 20
44 43 41 43 43 43 43 44 43 42 42 38 34 34 39 42 29 31 33 34 35 33 33 32 29 29 29 27 28 30 30 32 33 34 31 31 27 25 27 30 34 34 34 33 27 24 21
44 42 41 43 43 43 43 44 43 41 41 37 31 29 31 35 34 33 31 32 33 35 33 31 29 28 27 27 30 29 29 32 30 31 33 31 27 24 19 21 30 31 33 34 31 29 25
44 41 41 43 43 42 43 43 42 40 39 31 29 28 30 27 30 31 32 33 32 31 32 32 29 31 27 25 28 29 31 31 29 33 31 29 26 26 26 29 29 30 31 33 32 31 28
43 41 43 43 43 42 43 43 42 40 36 30 23 24 27 25 29 31 30 30 33 33 33 32 31 32 30 26 26 27 29 29 28 29 30 28 24 25 25 28 27 26 29 32 33 32 31
43 41 44 43 42 42 43 43 42 39 34 28 31 32 29 26 26 30 25 27 32 33 35 35 35 32 30 31 31 30 31 30 29 27 28 26 25 22 19 25 24 19 22 26 31 32 32
42 42 44 43 42 43 42 42 43 41 36 33 33 29 19 18 23 23 23 25 26 29 31 33 36 32 33 37 32 30 30 30 29 29 30 26 24 22 21 21 15 17 25 26 27 30 32
42 42 44 43 42 43 42 43 43 43 39 35 34 29 24 13 22 22 23 25 28 32 33 35 38 37 39 32 28 26 26 27 28 30 29 27 26 23 20 21 19 20 26 26 25 24 27
42 42 44 43 42 42 42 43 43 43 41 35 35 33 27 17 18 24 23 25 25 29 30 35 38 36 37 32 28 23 21 24 25 28 30 29 27 24 24 20 12 18 30 28 28 23 30
42 42 44 44 42 42 42 42 42 43 42 37 35 35 30 25 25 25 21 19 23 28 27 31 33 34 37 33 28 26 24 25 23 25 26 27 27 25 24 23 23 24 26 30 24 23 34
43 43 45 44 42 42 42 42 42 42 43 37 36 38 33 28 28 28 27 24 25 26 21 28 30 34 35 32 30 29 27 25 25 26 26 25 24 25 24 23 19 25 31 28 28 35 36
45 43 45 44 42 42 42 42 42 42 43 38 34 38 39 32 30 31 31 30 27 27 26 26 30 30 32 33 33 32 29 28 25 23 28 24 24 24 25 23 25 27 32 32 36 36 36
Wind_Speed
9 11 12 12 13 15 17 16 17 17 18 17 19 18 19 17 18 18 17 13 9 7 5 4 3 3 4 1 6 4 9 5 0 3 5 10 8 6 9 9 7 8 8 13 5 8 7
8 10 11 12 13 14 15 14 15 16 17 19 17 18 19 19 16 14 14 12 9 6 5 5 5 5 3 2 3 3 7 1 5 3 5 13 7 8 7 7 12 8 3 15 7 4 2
8 9 10 11 12 14 15 16 16 18 17 16 19 16 18 18 14 13 11 10 8 7 4 4 5 3 1 6 3 9 5 2 4 6 5 15 5 9 3 5 8 7 10 11 11 8 4
7 9 10 11 12 13 14 15 16 18 19 17 17 17 16 16 16 12 12 9 5 5 4 4 4 2 3 3 4 4 3 1 8 11 11 14 9 4 1 1 7 8 9 9 13 20 6
6 8 9 10 12 13 14 15 17 18 19 19 18 18 16 16 16 14 12 11 2 1 2 3 4 2 2 7 3 3 2 3 11 11 12 14 9 4 3 11 8 9 15 12 14 20 11
6 8 9 10 12 14 15 15 16 18 18 18 18 17 17 15 15 14 13 4 3 3 2 2 1 2 3 3 4 0 5 9 3 11 12 11 10 10 6 16 29 22 8 10 12 18 13
6 7 9 10 11 14 15 16 17 19 19 18 18 17 17 15 13 12 5 2 2 1 1 2 2 1 4 9 1 3 7 8 6 8 13 17 5 31 27 7 3 15 9 12 8 15 21
6 7 9 10 11 13 15 16 18 19 19 19 19 18 17 16 10 9 4 2 2 2 1 1 5 5 2 4 1 4 8 4 4 15 7 7 9 16 11 9 5 14 11 8 3 15 14
6 7 9 10 11 13 15 16 18 18 19 20 20 19 19 14 6 1 3 3 4 1 2 1 2 2 2 3 2 2 3 9 1 9 8 7 2 15 12 11 9 5 14 11 7 8 0
6 7 8 10 12 14 15 16 19 19 19 20 20 20 18 6 1 2 2 5 2 2 1 2 1 1 2 2 1 2 2 2 4 6 5 2 7 20 19 11 8 8 9 12 13 14 9
7 7 7 9 11 14 15 17 19 20 20 21 22 20 12 2 2 3 3 7 3 1 2 2 2 1 1 1 2 2 2 1 9 4 2 3 21 14 19 14 5 4 9 9 5 6 3
7 6 6 8 10 14 16 18 19 20 21 22 23 17 2 3 1 1 8 6 1 2 5 2 2 4 3 1 2 2 3 1 3 5 1 2 11 2 5 7 6 10 12 11 6 3 6
8 6 6 8 10 13 17 18 20 21 22 23 23 11 6 7 3 5 5 1 1 6 1 1 3 4 5 5 5 5 2 3 3 3 5 10 7 3 5 12 3 5 9 5 3 5 6
9 5 5 7 10 13 16 18 20 21 23 24 18 4 8 3 2 7 2 2 6 2 2 1 1 9 3 9 4 8 7 4 4 8 8 7 11 5 2 5 8 6 3 6 6 6 4
8 4 4 7 10 12 15 17 20 21 23 22 4 3 5 1 6 3 3 1 3 3 2 2 1 2 2 2 4 6 9 8 8 11 1 6 5 3 7 2 3 7 7 3 6 2 2
8 5 3 6 9 12 14 17 20 22 23 14 3 3 1 1 5 3 1 0 1 3 2 2 2 3 2 3 4 3 2 3 3 3 2 3 8 4 3 3 6 4 9 4 1 4 6
9 5 2 5 9 12 14 17 19 22 22 3 3 3 2 2 3 3 1 2 2 6 4 2 3 2 1 4 4 4 2 3 3 4 6 4 5 4 5 4 7 4 5 2 4 4 5
10 6 2 4 8 11 14 17 19 22 18 7 3 2 3 4 2 1 1 2 2 1 2 2 0 1 2 1 3 6 4 3 4 10 5 2 6 6 5 3 4 5 7 8 10 5 2
12 8 4 2 7 11 14 17 19 20 10 4 2 1 1 3 1 1 2 1 1 1 1 0 2 3 3 2 2 2 2 2 7 10 10 9 5 7 2 3 2 7 7 4 4 2 11
14 9 6 1 6 10 14 17 19 20 5 5 2 1 1 2 2 2 2 4 3 1 3 2 3 2 3 3 5 3 3 2 4 2 3 4 4 5 12 4 4 10 13 16 15 17 9
15 11 6 1 5 9 13 16 19 18 5 5 5 1 1 2 2 4 1 4 4 4 3 5 3 6 2 2 2 3 2 3 3 4 3 2 3 4 4 4 4 5 17 21 31 30 19
18 13 8 3 4 7 11 14 20 21 5 8 3 2 2 1 4 1 3 3 5 5 5 4 4 7 4 3 2 2 4 3 3 2 3 2 2 4 4 4 6 8 13 21 27 25 27
20 15 10 5 4 6 8 12 17 22 7 6 1 1 2 3 3 0 2 2 2 4 5 7 3 2 5 3 4 5 2 1 2 5 5 2 6 4 3 2 4 12 18 22 17 22 26
21 17 12 8 6 6 7 10 14 16 12 6 2 3 3 2 3 3 2 3 4 4 2 7 4 1 1 5 2 2 9 6 3 3 3 4 4 2 2 1 5 5 2 5 20 12 24
22 18 14 10 7 6 6 11 11 12 10 8 3 3 3 3 2 1 4 4 8 5 3 4 4 4 7 2 2 2 3 1 1 1 3 3 6 2 3 5 10 3 1 4 6 5 14
23 19 16 13 9 7 6 6 9 10 7 6 5 3 3 4 2 2 2 3 4 6 8 4 6 11 3 2 3 4 3 2 2 1 3 5 4 3 2 3 5 2 2 3 4 6 2
24 21 17 14 10 8 6 4 6 7 5 5 3 3 3 3 0 2 2 1 1 2 3 4 8 7 4 2 3 3 5 3 4 5 5 4 4 9 6 5 9 10 6 4 1 3 10
25 22 18 15 12 9 6 5 5 5 6 4 4 0 1 1 2 3 2 2 1 2 2 6 4 0 3 5 4 5 6 6 3 4 5 11 8 6 5 5 9 4 3 3 3 5 6
25 23 19 17 13 10 7 6 5 5 6 4 4 1 1 1 1 2 5 5 5 3 1 3 2 3 3 2 1 2 3 3 5 4 2 6 8 6 11 8 6 5 8 3 3 4 4
Wind_Direction
340 343 340 348 351 354 353 354 355 348 345 347 343 346 345 352 348 356 9 21 31 55 61 53 59 108 105 79 262 291 359 87 271 198 203 221 188 169 188 181 155 224 197 207 135 112 87
334 337 339 341 344 353 351 353 350 344 347 347 346 344 343 345 348 354 358 13 26 40 39 54 69 115 110 250 254 337 340 211 52 29 215 196 202 183 207 181 183 182 190 175 140 211 101
324 330 333 335 346 347 347 349 345 338 341 345 344 344 341 339 345 343 355 359 9 23 34 64 87 77 112 249 327 324 314 201 77 348 254 194 220 192 173 158 188 136 107 114 159 178 223
315 319 328 330 335 342 339 346 344 342 337 343 344 340 341 334 334 335 336 343 349 349 2 21 48 63 253 253 312 338 328 240 355 336 208 195 177 205 208 113 149 154 138 145 165 150 154
301 312 320 324 326 331 339 344 345 340 338 342 343 340 341 334 331 331 328 319 274 347 351 16 18 47 323 323 66 335 51 352 349 332 156 174 181 184 166 147 139 209 178 171 170 162 146
289 304 313 316 320 327 331 340 340 341 340 338 340 339 337 330 327 324 337 337 134 57 17 35 52 344 338 348 310 24 98 61 320 325 156 193 187 178 170 176 190 187 157 184 155 179 164
273 291 305 309 319 323 329 335 337 340 338 338 338 337 333 327 323 320 348 71 71 55 298 218 298 273 332 308 268 127 114 81 326 225 168 213 181 186 190 165 95 151 149 162 190 184 188
261 284 299 308 317 322 327 331 334 334 335 337 336 335 332 323 311 320 104 204 167 151 140 262 264 264 279 332 350 128 148 66 271 145 3 181 193 200 147 190 123 141 160 168 122 169 181
248 275 295 308 318 322 328 329 329 334 334 336 335 336 331 318 306 35 119 179 163 109 95 290 302 235 221 346 320 161 177 139 142 132 348 184 260 169 160 189 150 138 165 169 151 142 88
236 267 291 309 320 324 329 329 328 334 336 334 337 336 329 333 159 161 162 170 175 144 59 271 206 271 124 298 8 83 21 131 51 149 328 51 168 164 170 167 152 149 164 155 152 157 189
226 259 290 310 323 326 330 330 330 333 337 336 335 335 335 218 174 164 178 149 148 87 53 185 163 329 35 36 127 359 331 28 118 157 231 104 159 169 165 162 135 142 150 132 123 149 158
227 258 289 312 327 329 329 332 333 335 337 337 334 333 3 106 230 237 139 146 106 73 40 151 137 144 127 25 52 102 291 111 106 85 18 339 162 136 143 134 100 132 98 69 59 76 253
225 252 293 318 332 333 331 333 335 337 337 338 334 329 167 151 148 163 136 119 14 53 187 343 181 174 162 179 133 160 175 93 90 115 168 132 147 108 103 127 52 106 118 112 150 199 233
224 246 295 324 334 339 335 337 338 339 338 340 341 73 149 145 145 137 87 34 64 249 252 127 33 160 187 171 107 112 151 163 195 208 133 149 133 117 22 140 165 160 170 163 175 194 210
221 244 297 326 336 344 339 338 338 340 341 344 38 45 136 175 146 121 112 14 158 200 172 96 77 82 90 86 116 177 182 177 205 197 111 123 81 98 75 76 136 167 207 144 107 47 191
210 232 295 326 339 346 342 340 341 343 341 355 95 113 74 123 143 107 111 214 208 206 194 172 47 164 105 121 115 171 148 160 222 170 28 105 102 27 102 124 50 127 149 184 338 204 242
196 217 280 323 349 345 343 346 347 345 342 29 82 131 211 150 134 87 298 243 220 231 193 195 69 39 78 150 153 150 123 148 174 122 62 111 96 126 128 206 183 148 171 143 171 186 221
184 198 247 323 352 348 349 351 352 348 347 50 80 180 201 185 184 157 267 204 213 182 189 244 277 26 25 118 28 16 90 88 162 125 136 172 105 134 195 303 265 231 195 176 205 213 212
175 184 217 319 356 354 353 358 355 352 5 101 66 171 266 226 246 38 319 336 270 308 268 292 10 61 12 26 81 122 108 71 158 158 162 175 133 123 158 263 303 226 207 183 120 81 225
174 179 203 312 5 357 358 358 357 358 42 93 74 188 337 69 33 75 27 9 18 39 330 329 330 12 82 52 27 133 113 29 119 158 120 119 136 167 203 191 155 202 210 212 212 234 220
171 179 191 155 18 4 2 0 1 8 75 97 41 86 83 283 33 34 18 7 357 34 8 24 28 29 20 63 64 91 90 108 85 129 82 138 179 199 254 254 206 228 209 205 215 226 224
170 176 179 143 46 17 18 13 10 17 92 79 81 64 26 346 313 285 27 38 47 347 13 5 61 346 28 76 26 206 157 188 181 128 121 56 139 156 242 194 212 245 229 217 225 230 245
169 173 168 143 79 36 28 27 25 21 55 87 61 115 108 11 14 115 39 48 47 354 68 69 338 15 61 54 345 309 219 166 170 165 159 139 153 153 250 337 309 279 237 212 221 223 226
168 171 161 145 107 76 49 47 39 44 67 103 112 112 78 69 59 75 355 336 325 341 274 310 351 67 333 310 151 70 55 84 99 67 124 143 132 140 274 64 246 236 198 219 220 232 221
168 169 162 147 130 105 86 73 54 55 63 86 107 84 93 99 65 70 5 339 322 320 343 304 16 342 317 61 78 30 349 10 109 38 190 144 146 169 232 215 294 326 85 179 193 278 230
168 169 163 155 147 131 106 82 74 60 75 90 75 98 95 115 30 69 31 11 2 345 329 318 336 331 310 122 147 209 230 214 237 188 76 121 121 160 153 256 257 256 327 197 162 285 240
169 168 166 160 153 138 115 94 82 73 85 103 102 129 85 98 109 145 105 97 331 308 296 328 338 336 351 204 164 206 249 193 219 199 182 167 188 209 214 248 280 262 274 152 230 292 323
167 168 165 162 154 141 124 109 99 81 151 91 93 317 98 127 285 204 201 135 71 40 2 338 313 94 306 204 184 199 214 223 202 202 186 187 182 193 175 221 265 196 125 212 258 308 314
166 166 164 164 157 146 139 115 95 86 134 107 108 357 232 202 222 212 240 223 186 161 71 309 204 304 352 266 293 300 218 201 211 241 184 216 198 190 194 217 239 220 235 246 262 282 323